Regional Weather Roundup
Issued by NWS State College, PA

Home | Current Version | Previous Version | Text Only | Print | Product List | Glossary On
Versions: 1 2 3 4 5 6 7 8 9 10 11 12 13 14 15 16 17 18 19 20 21 22 23 24 25 26 27 28 29 30 31 32 33 34 35 36 37 38 39 40 41 42 43 44 45 46 47 48 49 50
000
ASUS41 KCTP 190703
RWRCTP

REGIONAL WEATHER ROUNDUP
NATIONAL WEATHER SERVICE STATE COLLEGE PA
200 AM EST MON FEB 19 2018

Note: "fair" indicates few or no clouds below 12,000 feet with no
significant weather and/or obstructions to visibility.

* = STATION THAT DOES NOT REPORT PRECIPITATION /E.G. RAIN...SNOW...ETC/
    THUNDER OR FOG.

PAZ002>004-007>009-013>016-020>023-029>032-190800-
WESTERN PENNSYLVANIA

CITY           SKY/WX    TMP DP  RH WIND       PRES   REMARKS
ERIE           FAIR      38  25  59 S16G25    30.12F
MEADVILLE      FAIR      33  25  72 S5        30.14F
FRANKLIN*      FAIR      33  24  69 SE10      30.18F
NEW CASTLE     FAIR      35  27  72 CALM      30.18S
BEAVER COUNTY  NOT AVBL
BUTLER*        FAIR      34  26  72 E9        30.18
PITTSBURGH INT CLOUDY    34  27  75 SE5       30.17S
PITTSBURGH     FAIR      37  26  64 SE7       30.17F
INDIANA*       CLEAR     39  28  65 S10G26    30.25F
LATROBE        FAIR      41  28  60 SE13G18   30.20S
WASHINGTON CO* FAIR      32  27  81 CALM      30.20S
$$

PAZ004>006-010>012-017>019-024>028-033>037-041-042-045-046-049>053-190800-
CENTRAL PENNSYLVANIA

CITY           SKY/WX    TMP DP  RH WIND       PRES   REMARKS
BRADFORD       FAIR      32  24  72 S13G25    30.20F
DUBOIS         FAIR      33  24  69 SE13G24   30.20F
CLEARFIELD     FAIR      27  24  89 NE3       30.29F
JOHNSTOWN      FAIR      33  26  75 S13       30.24F
ALTOONA        FAIR      37  27  67 S10G20    30.33F
STATE COLLEGE  FAIR      33  26  74 CALM      30.34F
WILLIAMSPORT   FAIR      30  26  85 CALM      30.41S
SELINSGROVE    FAIR      27  24  89 NW3       30.43F
FT INDIANTOWN  FAIR      26  26 100 N3        30.46S
CAPITAL CITY   FAIR      37  28  70 S8        30.46S
HARRISBURG     FAIR      35  29  78 SE7       30.46S
YORK           FAIR      36  30  79 VRB5      30.45S
$$

PAZ038>040-043-044-047-048-054-055-060>062-067>071-190800-
EASTERN PENNSYLVANIA

CITY           SKY/WX    TMP DP  RH WIND       PRES   REMARKS
SCRANTON       FAIR      29  23  78 SW3       30.42R
MOUNT POCONO   NOT AVBL
ALLENTOWN      FAIR      27  22  81 N3        30.49S
QUAKERTOWN*    SUNNY     23  21  93 CALM      30.49S
READING        FAIR      29  27  92 CALM      30.47F
LANCASTER      FAIR      30  27  88 E5        30.47S
COATESVILLE    FAIR      32 N/A N/A SE5       30.49S
POTTSTOWN      FAIR      26  24  92 CALM      30.50F
BLUE BELL      FAIR      27  27 100 CALM      30.51S
DOYLESTOWN     FAIR      27  24  89 CALM      30.50R
WILLOW GROVE   NOT AVBL
NORTH PHILA    FAIR      35  26  69 SE3       30.53R
PHILADELPHIA   MOCLDY    34  26  72 E7        30.52R
$$




USA.gov is the U.S. government's official web portal to all federal, state and local government web resources and services.